Regional Weather Roundup
Issued by NWS

Home | Current Version | Previous Version | Text Only | Print | Product List | Glossary On
Versions: 1 2 3 4 5 6 7 8 9 10 11 12 13 14 15 16 17 18 19 20 21 22 23 24 25 26 27 28 29 30 31 32 33 34 35 36 37 38 39 40 41 42 43 44 45 46 47 48 49 50
000
ASUS43 KDTX 280801
RWRMI
MICHIGAN HOURLY REGIONAL WEATHER ROUNDUP
NATIONAL WEATHER SERVICE DETROIT/PONTIAC MI
400 AM EDT FRI AUG 28 2015

NOTE: "FAIR" INDICATES FEW OR NO CLOUDS BELOW 12,000 FEET WITH NO
SIGNIFICANT WEATHER AND/OR OBSTRUCTION TO VISIBILITY.

MIZ047>049-052>055-059>063-066>070-074>076-081>083-280900-
SOUTHEAST LOWER MICHIGAN

CITY           SKY/WX    TMP DP  RH WIND       PRES   REMARKS
ADRIAN         CLEAR     49  48  97 CALM      30.18F FOG
ALMA           FOG       47  47  99 CALM      30.17R VSB 3/4
ANN ARBOR      PTCLDY    45  45 100 CALM      30.18S FOG
BAD AXE        CLEAR     49  48  99 CALM      30.17S FOG
CARO           CLEAR     47  47  99 CALM      30.17R FOG
DETROIT CITY   CLEAR     54  50  86 CALM      30.19R
DETROIT        CLEAR     54  50  86 CALM      30.18R
FLINT          FOG       49  46  90 S3        30.18S VSB 1/2
GROSSE ILE     CLEAR     55  52  88 CALM      30.17R
HILLSDALE      PTCLDY    55  55 100 SE3       30.17F
HOWELL         FOG       48  48  98 CALM      30.17F VSB 1/2

CITY           SKY/WX    TMP DP  RH WIND       PRES   REMARKS
JACKSON        PTCLDY    51  50  96 E3        30.17S FOG
LAMBERTVILLE   CLEAR     51  49  92 CALM      30.18S FOG
LANSING        CLEAR     53  51  93 CALM      30.17S
LAPEER         FOG       44  44 100 CALM      30.18S VSB 1
MASON          PTCLDY    46  46  98 CALM      30.17F FOG
MONROE         CLEAR     51  49  94 CALM      30.17R FOG
MT. CLEMENS    CLEAR     51  50  96 W2        30.17R
PONTIAC        FOG       49  48  97 CALM      30.18R VSB 1/2
PORT HOPE        N/A     55  52  89 SW6       30.14S
PORT HURON     FOG       45  45 100 CALM      30.19R VSB 3/4
TRI CITIES     CLOUDY    58  53  84 S7        30.17S
MIDLAND        CLOUDY    55  54  94 CALM      30.15S
TROY           CLEAR     55  51  89 CALM      30.20R
SAGINAW HB     MOCLDY    52  50  93 CALM      30.16S
$$
MIZ043>046-050>051-056>058-064>065-071>073-077>080-280900-
SOUTHWEST LOWER MICHIGAN

CITY           SKY/WX    TMP DP  RH WIND       PRES   REMARKS
BATTLE CREEK   CLEAR     57  53  86 S7        30.17S
BENTON HARBOR  MOCLDY    58  54  86 SE7       30.15R
BIG RAPIDS     FOG       52  51  97 CALM      30.15S VSB 1/4
COLDWATER      CLEAR     53  53  99 CALM      30.17S
FREMONT        FOG       51  51 100 E3        30.14F VSB 1/2
HOLLAND        CLEAR     55  52  89 SE3       30.16S
GRAND RAPIDS   CLEAR     52  51  97 CALM      30.17R
IONIA          FAIR      51  51 100 SW3       30.16R
KALAMAZOO      MOCLDY    58  53  84 S3        30.17R
LUDINGTON      PTCLDY    58  56  93 SE3       30.13S
MARSHALL       PTCLDY    55  52  92 S3        30.16S
MOUNT PLEASANT PTCLDY    57  54  88 SW3       30.16R
MUSKEGON       CLEAR     53  50  89 SE5       30.14F
SOUTH HAVEN    CLEAR     55  53  95 SE5       30.15S
$$
MIZ016>042-280900-
NORTHERN LOWER MICHIGAN

CITY           SKY/WX    TMP DP  RH WIND       PRES   REMARKS
ALPENA         CLEAR     47  45  93 CALM      30.12S
BEAVER ISLAND  CLEAR     62  60  93 SW6       30.09R
BELLAIRE       CLEAR     49  48  96 CALM      30.13R FOG
CADILLAC       CLEAR     50  49  95 CALM      30.14R
CHARLEVOIX     CLEAR     58  58  99 S6        30.14R
FRANKFORT      CLEAR     58  57  98 CALM      30.12R
GAYLORD        MOCLDY    52  52 100 W3        30.13R
GRAYLING       FOG       48  47  97 CALM      30.14S VSB 1/4
HARBOR SPRINGS PTCLDY    52  51  96 CALM      30.11R
HOUGHTON LAKE  CLEAR     55  54  96 S6        30.15R
MANISTEE       MOCLDY    52  48  87 E3        30.13S
OSCODA         CLEAR     53  52  97 SW6       30.13S
PELLSTON       FOG       47  46  97 CALM      30.10S VSB 1/4
ROGERS CITY    CLEAR     54  53  94 CALM      30.11S
TRAVERSE CITY  CLEAR     58  54  86 SW3       30.11R
$$
MIZ007>008-015-280900-
EASTERN UPPER MICHIGAN

CITY           SKY/WX    TMP DP  RH WIND       PRES   REMARKS
KINROSS        CLEAR     55  55 100 S6        30.08S
MACKINAC ISLAN CLEAR     59  58  96 S7        30.09R
NEWBERRY       CLEAR     58  58  99 S8        30.07S
S. S. MARIE    CLOUDY    55  53  93 CALM      30.08S
$$
MIZ004>006-011>014-085-280900-
CENTRAL UPPER MICHIGAN

CITY           SKY/WX    TMP DP  RH WIND       PRES   REMARKS
MANISTIQUE     CLEAR     62  57  85 SW8       30.06S
ESCANABA       PTCLDY    57  54  88 CALM      30.06R
MENOMINEE      MOCLDY    59  54  82 SW9       30.07R
SAWYER-GWINN   PTCLDY    56  55  94 S6        30.05S
$$
MIZ001>003-009>011-084-280900-
WESTERN UPPER MICHIGAN

CITY           SKY/WX    TMP DP  RH WIND       PRES   REMARKS
IRON MOUNTAIN  MOCLDY    56  55  97 SE3       30.05S
HOUGHTON       MOCLDY    58  54  86 SW5       30.00R
COPPER HARBOR    N/A     60  52  74 VRB3      29.98R
IRONWOOD       CLOUDY    64  57  77 SW7       29.98S
$$

ABBREVIATIONS USED IN REMARKS
   TC - TEMPERATURE IN CELSIUS
  WCI - WIND CHILL INDEX
   HX - HEAT INDEX
  VSB - VISIBILITY




USA.gov is the U.S. government's official web portal to all federal, state and local government web resources and services.